Meteo Giornale » Osservazioni meteo Italia » Genova-Sestri

ore: 02:50 - Osservazioni Meteo Genova-Sestri
Lat. 44° 25' N Lon. 8° 51' E Alt. 2 metri s.l.m.

nuvoloso Europe/Rome

18 °C

Nuvoloso

Temp. 24 Ore

16 °C

22 °C

Nord/Nord-Est

7.4 Km/h

Dew point 12 °C

Umidità 67 %

Visibilità  10 Km

Il sole sorge alle ore 07:46

Il sole tramonta alle ore 18:31

Data e Ora Cielo e Fenomeni T °C DP °C Um. % Pres. hPa Vis. km Vento km/h
Oggi h: 02:50 nuvoloso Nuvoloso 18 12 67 1020 10 N/NE 7.4
Oggi h: 02:20 nuvoloso Nuvoloso 18 12 67 1020 10 N 5.5
Oggi h: 01:50 nuvoloso Nuvoloso 18 11 63 1020 10 N/NE 7.4
Oggi h: 01:20 nuvoloso Nuvoloso 18 11 63 1020 10 N/NE 9.3
Oggi h: 00:50 nuvoloso Nuvoloso 18 11 63 1020 10 N/NE 7.4
Oggi h: 00:20 nuvoloso Nuvoloso 17 11 67 1020 10 N/NE 7.4
Ieri h: 23:50 nuvoloso Nuvoloso 17 12 72 1020 10 N/NE 9.3
Ieri h: 23:20 nuvoloso Nuvoloso 17 12 72 1020 10 N/NE 7.4
Ieri h: 22:50 nuvoloso Nuvoloso 17 12 72 1020 10 N/NE 9.3
Ieri h: 22:20 poco_nuvoloso Poco Nuvoloso 17 12 72 1020 10 N 9.3
Ieri h: 21:50 poco_nuvoloso Poco Nuvoloso 17 12 72 1020 10 N/NE 11.1
Ieri h: 21:20 sereno Sereno 18 12 67 1020 10 N/NE 7.4
Ieri h: 20:50 sereno Sereno 18 12 67 1020 10 N/NE 9.3
Ieri h: 20:20 sereno Sereno 18 12 67 1020 10 N 7.4
Ieri h: 19:50 sereno Sereno 18 13 72 1020 10 N/NE 7.4
Ieri h: 19:20 sereno Sereno 18 14 77 1019 10 N 0
Ieri h: 18:50 sereno Sereno 19 14 72 1019 10 N 3.7
Ieri h: 18:20 sereno Sereno 20 14 68 1019 10 N 5.5
Ieri h: 17:50 sereno Sereno 20 14 68 1019 10 N 3.7
Ieri h: 17:20 sereno Sereno 20 14 68 1019 10 N 3.7
Ieri h: 16:50 sereno Sereno 21 15 68 1019 10 N 5.5
Ieri h: 16:20 sereno Sereno 21 15 68 1019 10 N 5.5
Ieri h: 15:50 sereno Sereno 21 15 68 1019 10 S/SO 7.4
Ieri h: 15:20 sereno Sereno 21 15 68 1019 10 S 7.4
Ieri h: 14:50 sereno Sereno 21 15 68 1019 10 N 5.5
Ieri h: 14:20 sereno Sereno 21 15 68 1019 10 S 7.4
Ieri h: 13:50 poco_nuvoloso Poco Nuvoloso 22 15 64 1019 10 S/SE 7.4
Ieri h: 13:20 poco_nuvoloso Poco Nuvoloso 22 14 60 1019 10 S 7.4
Ieri h: 12:50 poco_nuvoloso Poco Nuvoloso 22 14 60 1020 10 S/SE 7.4
Ieri h: 12:20 sereno Sereno 22 12 53 1020 10 S/SE 11.1
Ieri h: 11:50 sereno Sereno 22 11 49 1020 10 E/SE 13
Ieri h: 11:20 sereno Sereno 21 9 46 1019 10 E/NE 14.8
Ieri h: 10:50 sereno Sereno 21 9 46 1019 10 NE 7.4
Ieri h: 10:20 sereno Sereno 19 9 52 1019 10 N/NE 13
Ieri h: 09:50 sereno Sereno 19 9 52 1019 10 NE 11.1
Ieri h: 09:20 sereno Sereno 18 9 55 1019 10 NE 13
Ieri h: 08:50 sereno Sereno 17 9 59 1019 10 N/NE 9.3
Ieri h: 08:20 sereno Sereno 17 9 59 1018 10 N/NE 11.1
Ieri h: 07:50 sereno Sereno 17 9 59 1018 10 N 9.3
Ieri h: 07:20 sereno Sereno 17 9 59 1018 10 N/NE 11.1
Ieri h: 06:50 sereno Sereno 17 9 59 1018 10 NE 13
Ieri h: 06:20 sereno Sereno 17 10 63 1018 10 N/NE 13
Ieri h: 05:50 sereno Sereno 17 10 63 1018 10 N 11.1
Ieri h: 05:20 sereno Sereno 17 10 63 1018 10 N/NE 14.8
Ieri h: 04:50 sereno Sereno 17 10 63 1018 10 N/NE 9.3
Ieri h: 04:20 sereno Sereno 16 10 67 1018 10 N/NE 9.3
Ieri h: 03:50 sereno Sereno 16 10 67 1018 10 N 7.4